W3ZTB Weather Reports


time (UTC)temp
C
wind
direction
speed
KPH
gust
KPH
rain 1hr
cm
rain 24hr
cm
rain mn
cm
humidity
%
barometer
mb
20260507085508 11 31 1.6 6.4 0.00 0.91 0.00 51 1011.7
20260507085009 11 324 3.2 11.3 0.00 0.91 0.00 50 1011.8
20260507084528 11 41 4.8 11.3 0.00 0.91 0.00 49 1011.6
20260507084005 11 321 4.8 12.9 0.00 0.91 0.00 50 1011.7
20260507083503 11 352 4.8 12.9 0.00 0.91 0.00 50 1011.7
20260507083012 11 6 6.4 12.9 0.00 0.91 0.00 49 1011.6
20260507082504 11 327 6.4 11.3 0.00 0.91 0.00 49 1011.6
20260507082006 11 319 6.4 14.5 0.00 0.91 0.00 49 1011.7
20260507081535 11 65 4.8 19.3 0.00 0.91 0.00 49 1011.7
20260507081004 11 8 4.8 20.9 0.00 0.91 0.00 49 1011.7
20260507080511 11 333 8.0 20.9 0.00 0.91 0.00 49 1011.7
20260507080023 11 336 6.4 22.5 0.00 0.91 0.00 49 1011.7
20260507075509 11 20 6.4 22.5 0.00 0.91 0.00 48 1011.6
20260507075010 11 330 9.7 19.3 0.00 0.91 0.00 48 1011.7
20260507074525 11 304 8.0 19.3 0.00 0.91 0.00 49 1011.6
20260507074013 11 321 12.9 19.3 0.00 0.91 0.00 48 1011.7
20260507073510 12 335 11.3 17.7 0.00 0.91 0.00 48 1011.8
20260507073025 12 12 6.4 16.1 0.00 0.91 0.00 49 1011.8
20260507072004 12 324 6.4 17.7 0.00 0.91 0.00 49 1011.9
20260507071514 12 324 6.4 14.5 0.00 0.91 0.00 49 1011.9
20260507071004 12 292 4.8 14.5 0.00 0.91 0.00 50 1011.9
20260507070512 12 28 8.0 12.9 0.00 0.91 0.00 50 1011.9
20260507070018 12 319 3.2 14.5 0.00 0.91 0.00 54 1011.9
20260507065511 12 1 3.2 14.5 0.00 0.91 0.00 54 1012.0
20260507065004 12 335 6.4 11.3 0.00 0.91 0.00 55 1011.8
20260507064521 12 3 4.8 9.7 0.00 0.91 0.00 58 1011.8
20260507064006 12 338 3.2 9.7 0.00 0.91 0.00 59 1011.9
20260507063508 12 320 4.8 12.9 0.00 0.91 0.00 57 1011.7
20260507063024 12 340 6.4 16.1 0.00 0.91 0.00 57 1011.7
20260507062510 12 323 8.0 16.1 0.00 0.91 0.00 58 1011.8
20260507062012 12 321 4.8 17.7 0.00 0.91 0.00 57 1011.9
20260507061528 12 324 8.0 19.3 0.00 0.91 0.00 59 1011.8
20260507061002 12 13 9.7 19.3 0.00 0.91 0.00 61 1011.8
20260507060505 12 11 11.3 19.3 0.00 0.91 0.00 62 1011.7
20260507060016 12 321 9.7 17.7 0.00 0.91 0.00 66 1011.7
20260507055506 12 305 3.2 19.3 0.00 0.91 0.00 70 1011.8
20260507055008 12 320 11.3 22.5 0.00 0.91 0.00 70 1011.6
20260507054519 12 333 8.0 22.5 0.00 0.91 0.00 70 1011.6
20260507054009 12 344 4.8 16.1 0.00 0.91 0.00 71 1011.5
20260507053509 12 336 8.0 14.5 0.00 0.91 0.00 71 1011.6
20260507053024 12 30 8.0 12.9 0.00 0.91 0.00 71 1011.6
20260507052507 12 321 4.8 11.3 0.00 0.91 0.00 73 1011.5
20260507052003 12 26 4.8 9.7 0.00 0.91 0.00 74 1011.6
20260507051509 12 72 3.2 8.0 0.00 0.91 0.00 76 1011.6
20260507051004 12 40 1.6 8.0 0.00 0.91 0.00 77 1011.7
20260507050502 12 34 3.2 8.0 0.00 0.91 0.00 76 1011.8
20260507050014 12 37 3.2 8.0 0.00 0.91 0.00 75 1011.5
20260507045505 12 354 3.2 11.3 0.00 0.91 0.00 73 1011.4
20260507045006 12 70 3.2 14.5 0.00 0.91 0.00 72 1011.7
20260507044516 12 352 6.4 17.7 0.00 0.91 0.00 70 1011.7
20260507044007 12 334 9.7 17.7 0.00 0.91 0.00 72 1011.9
20260507043507 13 331 6.4 16.1 0.00 0.91 0.00 73 1012.0
20260507043022 13 334 6.4 14.5 0.00 0.91 0.00 72 1011.8
20260507042509 13 34 1.6 12.9 0.00 0.91 0.00 70 1011.7
20260507042010 13 336 6.4 12.9 0.00 0.91 0.00 67 1011.6
20260507041539 13 314 4.8 16.1 0.00 0.91 0.00 68 1011.5
20260507041007 13 346 6.4 19.3 0.00 0.91 0.00 67 1011.4
20260507040504 13 322 9.7 19.3 0.00 0.91 0.00 67 1011.4
20260507040011 13 357 6.4 17.7 0.00 0.91 0.00 68 1011.4
20260507035503 13 339 6.4 17.7 0.00 0.91 0.91 68 1011.5
20260507035009 13 334 9.7 14.5 0.00 0.91 0.91 68 1011.4
20260507034514 13 324 4.8 12.9 0.00 0.91 0.91 68 1011.5
20260507034006 13 319 6.4 12.9 0.00 0.91 0.91 69 1011.3
20260507033507 13 348 4.8 14.5 0.00 0.91 0.91 70 1011.3
20260507033018 13 355 8.0 20.9 0.00 0.91 0.91 71 1011.1
20260507032508 13 330 6.4 20.9 0.00 0.91 0.91 70 1011.3
20260507032010 13 323 6.4 20.9 0.00 0.91 0.91 71 1010.9
20260507031520 13 321 9.7 20.9 0.00 0.91 0.91 71 1010.5
20260507031009 13 291 6.4 20.9 0.00 0.91 0.91 72 1010.8
20260507030025 13 335 11.3 22.5 0.00 0.91 0.91 73 1011.1
20260507025515 13 335 9.7 22.5 0.00 0.91 0.91 72 1011.0
20260507025002 13 309 11.3 20.9 0.00 0.91 0.91 72 1010.9
20260507024511 13 330 11.3 20.9 0.00 0.91 0.91 71 1010.8
20260507024006 14 323 12.9 20.9 0.00 0.91 0.91 71 1011.0
20260507023503 14 51 6.4 22.5 0.00 0.91 0.91 72 1010.9
20260507023003 14 295 12.9 22.5 0.00 0.91 0.91 71 1010.9
20260507022503 14 319 6.4 17.7 0.00 0.91 0.91 72 1011.0
20260507022003 14 328 6.4 11.3 0.00 0.91 0.91 73 1011.0
20260507021503 14 4 1.6 17.7 0.00 0.91 0.91 73 1010.8
20260507021002 14 359 8.0 17.7 0.00 0.91 0.91 73 1010.8
20260507020502 14 355 3.2 14.5 0.00 0.91 0.91 74 1010.8
20260507020006 15 319 4.8 14.5 0.00 0.91 0.91 74 1010.9
20260507015502 15 295 8.0 14.5 0.00 0.91 0.91 73 1010.8
20260507015002 15 291 8.0 19.3 0.00 0.91 0.91 73 1010.9
20260507014516 15 257 11.3 19.3 0.00 0.91 0.91 72 1011.0
20260507014003 15 303 6.4 14.5 0.00 0.91 0.91 72 1010.8
20260507013502 15 1 4.8 14.5 0.00 0.91 0.91 72 1010.9
20260507013031 15 300 6.4 14.5 0.00 0.91 0.91 72 1011.0
20260507012507 15 6 6.4 12.9 0.00 0.91 0.91 72 1010.9
20260507012004 15 271 4.8 12.9 0.00 0.91 0.91 72 1011.0
20260507011503 15 293 4.8 14.5 0.00 0.91 0.91 72 1010.9
20260507011001 15 327 9.7 14.5 0.00 0.91 0.91 72 1010.9
20260507010502 15 337 4.8 14.5 0.00 0.91 0.91 73 1010.8
20260507010004 15 327 8.0 14.5 0.00 0.91 0.91 73 1010.7
20260507005504 16 326 4.8 9.7 0.00 0.91 0.91 73 1010.6
20260507005002 16 302 4.8 9.7 0.00 0.91 0.91 73 1010.6
20260507004507 16 298 4.8 9.7 0.00 0.91 0.91 73 1010.4
20260507004002 16 303 1.6 11.3 0.00 0.91 0.91 73 1010.5
20260507003503 16 285 3.2 12.9 0.00 0.91 0.91 73 1010.4
20260507003009 16 305 8.0 12.9 0.00 0.91 0.91 73 1010.5
20260507002502 16 311 4.8 12.9 0.00 0.91 0.91 73 1010.2
20260507002007 16 329 4.8 14.5 0.00 0.91 0.91 73 1009.9
20260507001517 16 314 8.0 14.5 0.00 0.91 0.91 73 1009.9
20260507001006 16 21 6.4 16.1 0.00 0.91 0.91 73 1009.7
20260507000014 16 327 9.7 19.3 0.00 0.91 0.91 73 1009.5
20260506235503 16 338 4.8 19.3 0.00 0.91 0.91 74 1009.4
20260506235005 16 302 8.0 17.7 0.00 0.91 0.91 74 1009.3
20260506234504 16 304 6.4 17.7 0.00 0.91 0.91 74 1009.2
20260506234001 16 341 6.4 19.3 0.00 0.91 0.91 75 1009.0
20260506233503 16 352 9.7 19.3 0.00 0.91 0.91 75 1008.9
20260506233023 17 321 9.7 16.1 0.00 0.91 0.91 75 1008.9
20260506232502 17 335 8.0 12.9 0.00 0.91 0.91 76 1008.6
20260506232007 17 340 6.4 16.1 0.00 0.91 0.91 76 1008.7
20260506231514 17 299 8.0 19.3 0.00 0.91 0.91 76 1008.6
20260506231007 17 329 8.0 19.3 0.00 0.91 0.91 77 1008.7
20260506230506 17 319 4.8 14.5 0.00 0.91 0.91 77 1008.6
20260506230018 17 312 8.0 14.5 0.00 0.91 0.91 77 1008.5
20260506225509 17 323 4.8 14.5 0.00 0.91 0.91 78 1008.7
20260506225005 18 336 8.0 16.1 0.00 0.91 0.91 78 1008.5
20260506224503 18 299 9.7 16.1 0.00 0.91 0.91 79 1008.4
20260506224004 18 8 9.7 16.1 0.00 0.91 0.91 81 1008.4
20260506223006 18 291 3.2 6.4 0.00 0.91 0.91 84 1008.0
20260506222002 18 296 4.8 9.7 0.00 0.91 0.91 84 1008.0
20260506221509 18 292 4.8 9.7 0.00 0.91 0.91 84 1007.9
20260506220014 18 240 4.8 11.3 0.00 0.91 0.91 83 1007.7
20260506214520 18 246 6.4 16.1 0.00 0.91 0.91 82 1007.5
20260506213509 19 219 9.7 16.1 0.00 0.91 0.91 81 1007.4
20260506213003 19 211 4.8 12.9 0.00 0.91 0.91 80 1007.4
20260506211505 19 226 3.2 8.0 0.00 0.91 0.91 80 1007.2
20260506204518 19 262 4.8 9.7 0.00 0.91 0.91 79 1007.2
20260506203023 19 160 4.8 14.5 0.00 0.91 0.91 79 1007.1
20260506202509 19 209 8.0 14.5 0.00 0.91 0.91 78 1006.9
20260506200007 19 266 4.8 11.3 0.00 0.91 0.91 81 1007.2
20260506194514 18 280 6.4 12.9 0.00 0.91 0.91 83 1007.2
20260506194009 18 226 6.4 11.3 0.00 0.91 0.91 83 1007.3
20260506193020 18 278 6.4 12.9 0.00 0.91 0.91 83 1007.4
20260506191524 17 247 4.8 11.3 0.00 0.91 0.91 84 1007.4
20260506184511 17 250 3.2 11.3 0.00 0.91 0.91 86 1007.6
20260506181529 16 256 4.8 16.1 0.00 0.91 0.91 89 1007.7
20260506181012 16 249 8.0 16.1 0.00 0.91 0.91 89 1007.7
20260506180034 16 212 4.8 17.7 0.00 0.91 0.91 90 1007.9
20260506173010 16 207 8.0 24.1 0.00 0.91 0.91 89 1007.8
20260506172504 16 229 8.0 24.1 0.00 0.91 0.91 88 1007.8
20260506172003 16 233 8.0 20.9 0.00 0.91 0.91 87 1007.8
20260506171508 16 197 8.0 20.9 0.00 0.91 0.91 87 1007.8
20260506171007 16 228 11.3 27.4 0.00 0.91 0.91 86 1007.8
20260506170504 16 237 8.0 27.4 0.00 0.91 0.91 87 1007.8
20260506170008 16 217 9.7 22.5 0.00 0.91 0.91 86 1007.9
20260506165503 16 195 8.0 16.1 0.00 0.91 0.91 87 1007.9
20260506165003 16 238 3.2 9.7 0.00 0.91 0.91 87 1007.8
20260506164508 16 231 3.2 9.7 0.00 0.91 0.91 87 1007.8
20260506164002 16 242 4.8 16.1 0.00 0.91 0.91 87 1007.8
20260506163018 16 277 4.8 17.7 0.00 0.91 0.91 87 1007.9
20260506162504 16 207 9.7 17.7 0.00 0.91 0.91 87 1007.9
20260506162007 16 199 8.0 19.3 0.00 0.91 0.91 87 1007.9
20260506161004 16 264 3.2 14.5 0.00 0.91 0.91 88 1007.9
20260506160505 16 243 8.0 14.5 0.03 0.91 0.91 88 1007.9
20260506160015 16 207 4.8 17.7 0.05 0.91 0.91 89 1007.8
20260506155506 16 214 4.8 17.7 0.08 0.91 0.91 89 1007.9
20260506155003 16 219 4.8 12.9 0.10 0.91 0.91 89 1008.0
20260506154514 16 211 4.8 16.1 0.13 0.91 0.91 89 1008.0
20260506154004 16 223 8.0 16.1 0.15 0.91 0.91 89 1008.0
20260506153503 16 247 8.0 14.5 0.20 0.91 0.91 89 1008.0
20260506153010 16 179 1.6 12.9 0.23 0.91 0.91 90 1007.9
20260506152503 16 201 4.8 14.5 0.25 0.91 0.91 90 1007.9
20260506152007 16 146 4.8 14.5 0.33 0.91 0.91 90 1007.8
20260506151004 16 217 3.2 12.9 0.43 0.91 0.91 90 1007.8
20260506150503 15 204 8.0 14.5 0.43 0.89 0.89 90 1008.0
20260506145504 15 223 6.4 14.5 0.38 0.84 0.84 90 1008.1
20260506145004 15 227 6.4 16.1 0.38 0.81 0.81 90 1008.2
20260506144516 15 179 4.8 16.1 0.36 0.79 0.79 90 1008.4
20260506144005 15 152 8.0 17.7 0.36 0.76 0.76 90 1008.6
20260506143506 15 205 6.4 19.3 0.33 0.71 0.71 89 1008.7
20260506143014 15 254 9.7 19.3 0.36 0.69 0.69 89 1008.8
20260506142502 16 210 9.7 17.7 0.36 0.66 0.66 89 1008.9
20260506142007 16 222 6.4 16.1 0.30 0.58 0.58 88 1008.9
20260506141512 16 212 6.4 14.5 0.28 0.53 0.53 88 1008.9
20260506141002 16 196 6.4 12.9 0.25 0.48 0.48 88 1008.7
20260506140507 16 274 4.8 12.9 0.25 0.46 0.46 88 1008.6
20260506140019 16 211 1.6 11.3 0.25 0.46 0.46 88 1008.5
20260506135503 16 196 3.2 9.7 0.25 0.46 0.46 88 1008.2
20260506135006 16 220 3.2 11.3 0.23 0.43 0.43 88 1008.2
20260506134539 16 233 3.2 11.3 0.23 0.43 0.43 89 1008.2
20260506134008 16 213 3.2 11.3 0.20 0.41 0.41 88 1008.2
20260506133504 16 233 1.6 9.7 0.20 0.38 0.38 88 1008.1
20260506133015 16 225 1.6 12.9 0.15 0.33 0.33 87 1008.1
20260506132506 16 235 4.8 17.7 0.13 0.30 0.30 86 1008.3
20260506132007 16 241 4.8 17.7 0.13 0.28 0.28 86 1008.4
20260506131514 16 201 6.4 17.7 0.10 0.25 0.25 85 1008.5
20260506131003 16 245 6.4 17.7 0.10 0.23 0.23 85 1008.5
20260506130504 16 205 8.0 19.3 0.08 0.20 0.20 85 1008.4
20260506130015 16 226 8.0 19.3 0.10 0.20 0.20 85 1008.3
20260506125503 16 223 9.7 19.3 0.10 0.20 0.20 84 1008.2
20260506125004 16 214 6.4 19.3 0.13 0.20 0.20 84 1008.2
20260506124518 16 219 9.7 19.3 0.15 0.20 0.20 84 1008.4
20260506124005 16 207 8.0 17.7 0.15 0.20 0.20 83 1008.5
20260506123504 16 246 8.0 14.5 0.15 0.18 0.18 83 1008.5
20260506123018 16 202 4.8 16.1 0.15 0.18 0.18 83 1008.5
20260506122508 16 140 8.0 17.7 0.18 0.18 0.18 83 1008.6
20260506122006 16 226 8.0 17.7 0.15 0.15 0.15 82 1008.7
20260506121518 16 211 8.0 17.7 0.15 0.15 0.15 82 1008.8
20260506121006 16 215 9.7 22.5 0.13 0.13 0.13 81 1008.8
20260506120507 16 182 9.7 22.5 0.13 0.13 0.13 81 1008.9
20260506120021 16 200 9.7 19.3 0.10 0.10 0.10 80 1009.0
20260506115502 17 241 6.4 17.7 0.10 0.10 0.10 79 1009.0
20260506115005 17 240 9.7 19.3 0.08 0.08 0.08 78 1009.0
20260506114524 17 231 8.0 19.3 0.05 0.05 0.05 76 1008.9
20260506113505 17 249 8.0 14.5 0.03 0.03 0.03 73 1008.7
20260506113005 17 248 4.8 14.5 0.03 0.03 0.03 72 1008.5
20260506112503 18 205 4.8 17.7 0.00 0.00 0.00 70 1008.3
20260506111505 18 283 6.4 17.7 0.00 0.00 0.00 68 1008.3
20260506111002 18 262 4.8 17.7 0.00 0.00 0.00 67 1008.3
20260506110502 18 195 6.4 11.3 0.00 0.00 0.00 66 1008.2
20260506110012 18 226 3.2 16.1 0.00 0.00 0.00 66 1008.1
20260506105503 19 231 6.4 19.3 0.00 0.00 0.00 64 1008.0
20260506105003 19 104 8.0 20.9 0.00 0.00 0.00 63 1008.0
20260506104514 19 233 11.3 20.9 0.00 0.00 0.00 62 1007.9
20260506104006 19 232 3.2 24.1 0.00 0.00 0.00 62 1007.8
20260506103508 19 265 8.0 24.1 0.00 0.00 0.00 61 1007.8
20260506103026 19 224 8.0 22.5 0.00 0.00 0.00 61 1007.7
20260506102507 19 245 6.4 12.9 0.00 0.00 0.00 60 1007.7
20260506102003 19 127 3.2 14.5 0.00 0.00 0.00 60 1007.6
20260506101504 19 194 6.4 14.5 0.00 0.00 0.00 60 1007.6
20260506101002 19 245 4.8 12.9 0.00 0.00 0.00 60 1007.6
20260506100503 19 253 4.8 11.3 0.00 0.00 0.00 60 1007.5
20260506100007 20 255 8.0 16.1 0.00 0.00 0.00 59 1007.4
20260506095502 20 219 6.4 16.1 0.00 0.00 0.00 59 1007.4
20260506095005 20 232 8.0 16.1 0.00 0.00 0.00 59 1007.3
20260506094517 20 206 6.4 20.9 0.00 0.00 0.00 58 1007.1
20260506094004 20 226 9.7 25.7 0.00 0.00 0.00 58 1007.3
20260506093506 20 234 11.3 25.7 0.00 0.00 0.00 58 1007.3
20260506093016 20 228 8.0 20.9 0.00 0.00 0.00 58 1007.3
20260506092507 20 223 12.9 24.1 0.00 0.00 0.00 57 1007.4
20260506092007 20 235 9.7 25.7 0.00 0.00 0.00 57 1007.5
20260506091006 20 212 9.7 24.1 0.00 0.00 0.00 57 1007.5
20260506090502 20 172 11.3 24.1 0.00 0.00 0.00 56 1007.5
20260506090006 20 210 8.0 24.1 0.00 0.00 0.00 56 1007.6